Weather History for Christmas Island, IS

Change the Weather History Date:

Wednesday, September 5, 2012

  Actual Average Record
Temperature  
Mean Temperature 74 °F -  
Max Temperature 78 °F 76 °F 81 °F (2013)
Min Temperature 71 °F 70 °F 68 °F (1997)
Cooling Degree Days 10    
Growing Degree Days 24 (Base 50)    
Moisture  
Dew Point 69 °F    
Average Humidity 81    
Maximum Humidity 88    
Minimum Humidity 65    
Precipitation  
Precipitation 0.00 in - - ()
Sea Level Pressure  
Sea Level Pressure 29.97 in    
Wind  
Wind Speed 13 mph ()    
Max Wind Speed 17 mph    
Max Gust Speed -    
Visibility 6.2 miles    
Events      
Averages and records for this station are not official NWS values.
T = Trace of Precipitation, MM = Missing Value Source: Averaged Metar Reports

Daily Weather History Graph

Daily Weather History Graph

Search for Another Location

Airport:

Trip Planner

Search our weather history database for the weather conditions in past years. The results will help you decide how hot, cold, wet, or windy it might be!

Date:

Astronomy

Sep. 05, 2012 Rise Set
Actual Time 5:57 AM CXT 5:54 PM CXT
Civil Twilight 5:36 AM CXT 6:15 PM CXT
Nautical Twilight 5:11 AM CXT 6:40 PM CXT
Astronomical Twilight 4:47 AM CXT 7:04 PM CXT
Moon 9:44 PM CXT (9/5) 8:55 AM CXT (9/5)
Length of Visible Light 12h 39m
Length of Day
11h 56m
Waning Gibbous, 80% of the Moon is Illuminated
Sep 5
Waning Gibbous
Sep 8
Last Quarter
Sep 16
New
Sep 23
First Quarter
Sep 30
Full

Hourly Weather History & Observations

Time (CXT) Temp. Dew Point Humidity Pressure Visibility Wind Dir Wind Speed Gust Speed Precip Events Conditions
12:00 AM 73 °F 69 °F 84% 29.96 in - SE 13.8 mph - -   Overcast
12:00 AM 73.4 °F 69.8 °F 88% 30.01 in 6.2 mi SE 13.8 mph - N/A   Mostly Cloudy
1:00 AM 72 °F 69 °F 87% 29.96 in - SE 12.7 mph - -  
1:00 AM 73.4 °F 69.8 °F 88% 29.98 in 6.2 mi SE 12.7 mph - N/A   Overcast
2:00 AM 73.4 °F 68.0 °F 83% 29.98 in 6.2 mi SE 13.8 mph - N/A   Overcast
2:32 AM 73.4 °F 68.0 °F 83% 29.98 in 6.2 mi SE 12.7 mph - N/A   Overcast
2:54 AM 73.4 °F 68.0 °F 83% 29.98 in 6.2 mi SE 12.7 mph - N/A   Mostly Cloudy
3:00 AM 72 °F 67 °F 81% 29.95 in - SE 11.5 mph - -   Overcast
3:00 AM 73.4 °F 68.0 °F 83% 29.98 in 6.2 mi SE 11.5 mph - N/A   Mostly Cloudy
3:32 AM 73.4 °F 68.0 °F 83% 29.98 in 6.2 mi SE 12.7 mph - N/A   Overcast
3:37 AM 73.4 °F 68.0 °F 83% 29.98 in 6.2 mi SE 12.7 mph - N/A   Overcast
4:00 AM 72 °F 68 °F 83% 29.95 in - SE 11.5 mph - -  
4:00 AM 71.6 °F 68.0 °F 88% 29.98 in 6.2 mi SE 11.5 mph - N/A   Overcast
4:04 AM 71.6 °F 68.0 °F 88% 29.98 in 6.2 mi SE 12.7 mph - N/A   Overcast
4:12 AM 71.6 °F 68.0 °F 88% 29.98 in 6.2 mi SE 10.4 mph - N/A   Overcast
4:54 AM 73.4 °F 68.0 °F 83% 29.98 in 6.2 mi SE 12.7 mph - N/A   Overcast
4:56 AM 73.4 °F 68.0 °F 83% 29.98 in 6.2 mi SE 12.7 mph - N/A   Overcast
5:00 AM 73.4 °F 68.0 °F 83% 29.98 in 6.2 mi SE 12.7 mph - N/A   Overcast
5:51 AM 73.4 °F 68.0 °F 83% 29.98 in 6.2 mi SE 10.4 mph - N/A   Overcast
6:00 AM 73 °F 69 °F 83% 29.96 in - SE 12.7 mph - -   Overcast
6:00 AM 73.4 °F 69.8 °F 88% 29.98 in 6.2 mi SE 12.7 mph - N/A   Overcast
7:00 AM 74 °F 68 °F 77% 29.98 in - SE 12.7 mph - -  
7:00 AM 73.4 °F 68.0 °F 83% 30.01 in 6.2 mi SE 12.7 mph - N/A   Overcast
8:00 AM 73.4 °F 68.0 °F 83% 30.01 in 6.2 mi ESE 16.1 mph - N/A   Mostly Cloudy
8:08 AM 73.4 °F 68.0 °F 83% 30.04 in 6.2 mi ESE 16.1 mph - N/A   Overcast
9:00 AM 75 °F 69 °F 75% 30.01 in - ESE 13.8 mph - -   Overcast
9:00 AM 75.2 °F 68.0 °F 78% 30.04 in 6.2 mi ESE 13.8 mph - N/A   Overcast
10:00 AM 76 °F 68 °F 70% 30.01 in - ESE 16.1 mph - -  
10:00 AM 75.2 °F 68.0 °F 78% 30.04 in 6.2 mi ESE 16.1 mph - N/A   Mostly Cloudy
10:04 AM 77.0 °F 68.0 °F 74% 30.04 in 6.2 mi ESE 15.0 mph - N/A   Mostly Cloudy
10:08 AM 75.2 °F 68.0 °F 78% 30.04 in 6.2 mi ESE 15.0 mph - N/A   Overcast
11:00 AM 77.0 °F 69.8 °F 78% 30.01 in 6.2 mi ESE 15.0 mph - N/A   Mostly Cloudy
11:27 AM 78.8 °F 68.0 °F 69% 30.01 in 6.2 mi ESE 17.3 mph - N/A   Scattered Clouds
11:58 AM 78.8 °F 68.0 °F 69% 29.98 in 6.2 mi ESE 16.1 mph - N/A   Mostly Cloudy
12:00 PM 78 °F 68 °F 65% 29.95 in - ESE 17.3 mph - -  
12:00 PM 78.8 °F 68.0 °F 69% 29.98 in 6.2 mi ESE 17.3 mph - N/A   Mostly Cloudy
1:00 PM 78 °F 69 °F 66% 29.94 in - ESE 16.1 mph - -  
1:00 PM 78.8 °F 68.0 °F 69% 29.98 in 6.2 mi ESE 16.1 mph - N/A   Scattered Clouds
1:08 PM 77.0 °F 68.0 °F 74% 29.95 in 6.2 mi ESE 16.1 mph - N/A   Mostly Cloudy
2:00 PM 77.0 °F 68.0 °F 74% 29.95 in 6.2 mi SE 15.0 mph - N/A   Mostly Cloudy
2:31 PM 77.0 °F 68.0 °F 74% 29.95 in 6.2 mi ESE 15.0 mph - N/A   Scattered Clouds
3:00 PM 76 °F 68 °F 69% 29.90 in - ESE 16.1 mph - -  
3:00 PM 77.0 °F 68.0 °F 74% 29.92 in 6.2 mi ESE 16.1 mph - N/A   Scattered Clouds
3:19 PM 75.2 °F 68.0 °F 78% 29.92 in 6.2 mi ESE 15.0 mph - N/A   Mostly Cloudy
4:00 PM 75 °F 68 °F 74% 29.88 in - SE 15.0 mph - -  
4:00 PM 75.2 °F 68.0 °F 78% 29.92 in 6.2 mi SE 15.0 mph - N/A   Overcast
5:00 PM 75.2 °F 68.0 °F 78% 29.92 in 6.2 mi SE 12.7 mph - N/A   Mostly Cloudy
6:00 PM 74 °F 69 °F 81% 29.91 in - ESE 12.7 mph - -   Overcast
6:00 PM 73.4 °F 69.8 °F 88% 29.95 in 6.2 mi ESE 12.7 mph - N/A   Mostly Cloudy
6:02 PM 73.4 °F 69.8 °F 88% 29.95 in 6.2 mi ESE 13.8 mph - N/A   Mostly Cloudy
6:31 PM 73.4 °F 69.8 °F 88% 29.95 in 6.2 mi SE 12.7 mph - N/A   Mostly Cloudy
7:00 PM 73 °F 69 °F 84% 29.92 in - SE 12.7 mph - -  
7:00 PM 73.4 °F 69.8 °F 88% 29.95 in 6.2 mi SE 12.7 mph - N/A   Overcast
8:00 PM 73.4 °F 69.8 °F 88% 29.98 in 6.2 mi SE 11.5 mph - N/A   Overcast
9:00 PM 73 °F 70 °F 87% 29.96 in - SE 11.5 mph - -   Overcast
9:00 PM 73.4 °F 69.8 °F 88% 29.98 in 6.2 mi SE 11.5 mph - N/A   Overcast
10:00 PM 73 °F 70 °F 87% 29.96 in - SE 12.7 mph - -  
10:00 PM 73.4 °F 69.8 °F 88% 29.98 in 6.2 mi SE 12.7 mph - N/A   Mostly Cloudy
11:00 PM 73.4 °F 69.8 °F 88% 29.98 in 6.2 mi SE 13.8 mph - N/A   Overcast